When you browse on this site, cookies collect data to enhance your experience and personalize the content and advertising you see.
Visit our Privacy Policy to learn more. By continuing to use the site, you agree to this use of cookies and data.

Météo par heure à Budnye

Ce jour, 12 Août, Mercredi

Heure Température Précipitation Vent Pression Humidité
00:00 +13°C° 0 mm 2 m/s 748 mmHg 85%
01:00 +12°C° 0 mm 2 m/s 748 mmHg 86%
02:00 +12°C° 0 mm 2 m/s 748 mmHg 88%
03:00 +10°C° 0 mm 2 m/s 748 mmHg 89%
04:00 +10°C° 0 mm 2 m/s 748 mmHg 91%
05:00 +10°C° 0 mm 2 m/s 748 mmHg 92%
06:00 +12°C° 0 mm 2 m/s 748 mmHg 86%
07:00 +13°C° 0 mm 2 m/s 748 mmHg 80%
08:00 +14°C° 0 mm 3 m/s 748 mmHg 73%
09:00 +16°C° 0 mm 3 m/s 748 mmHg 68%
10:00 +17°C° 0 mm 3 m/s 748 mmHg 63%
11:00 +18°C° 0 mm 3 m/s 748 mmHg 57%
12:00 +19°C° 0 mm 3 m/s 748 mmHg 57%
13:00 +19°C° 0 mm 3 m/s 748 mmHg 56%
14:00 +19°C° 0 mm 2 m/s 748 mmHg 54%
15:00 +19°C° 0 mm 2 m/s 748 mmHg 57%
16:00 +19°C° 0 mm 2 m/s 748 mmHg 60%
17:00 +19°C° 0 mm 2 m/s 748 mmHg 63%
18:00 +17°C° 0 mm 2 m/s 748 mmHg 67%
19:00 +16°C° 0 mm 2 m/s 748 mmHg 71%
20:00 +15°C° 0 mm 2 m/s 748 mmHg 75%
21:00 +14°C° 0 mm 2 m/s 748 mmHg 78%
22:00 +12°C° 0 mm 1 m/s 748 mmHg 82%
23:00 +11°C° 0 mm 1 m/s 748 mmHg 85%

Demain, 13 Août, Jeudi

Heure Température Précipitation Vent Pression Humidité
00:00 +11°C° 0 mm 1 m/s 748 mmHg 87%
01:00 +10°C° 0 mm 1 m/s 748 mmHg 88%
02:00 +10°C° 0 mm 1 m/s 748 mmHg 90%
03:00 +10°C° 0 mm 1 m/s 748 mmHg 90%
04:00 +8°C° 0 mm 0 m/s 748 mmHg 91%
05:00 +8°C° 0 mm 0 m/s 747 mmHg 91%
06:00 +11°C° 0 mm 1 m/s 747 mmHg 84%
07:00 +13°C° 0 mm 1 m/s 747 mmHg 77%
08:00 +15°C° 0 mm 1 m/s 747 mmHg 70%
09:00 +16°C° 0 mm 1 m/s 747 mmHg 65%
10:00 +18°C° 0 mm 1 m/s 747 mmHg 59%
11:00 +20°C° 0 mm 1 m/s 747 mmHg 54%
12:00 +20°C° 0 mm 1 m/s 747 mmHg 54%
13:00 +20°C° 0 mm 1 m/s 747 mmHg 54%
14:00 +21°C° 0 mm 1 m/s 746 mmHg 54%
15:00 +20°C° 0 mm 1 m/s 746 mmHg 56%
16:00 +20°C° 0 mm 1 m/s 746 mmHg 57%
17:00 +20°C° 0 mm 1 m/s 746 mmHg 59%
18:00 +18°C° 0 mm 1 m/s 746 mmHg 66%
19:00 +16°C° 0 mm 1 m/s 746 mmHg 72%
20:00 +14°C° 0 mm 1 m/s 746 mmHg 79%
21:00 +13°C° 0 mm 1 m/s 746 mmHg 80%
22:00 +13°C° 0 mm 1 m/s 746 mmHg 82%
23:00 +12°C° 0 mm 1 m/s 746 mmHg 83%

Après-demain, 14 Août, Vendredi

Heure Température Précipitation Vent Pression Humidité
00:00 +12°C° 0 mm 1 m/s 746 mmHg 84%
01:00 +12°C° 0 mm 1 m/s 746 mmHg 85%
02:00 +11°C° 0 mm 1 m/s 747 mmHg 87%
03:00 +11°C° 0 mm 1 m/s 747 mmHg 88%
04:00 +10°C° 0 mm 0 m/s 746 mmHg 88%
05:00 +10°C° 0 mm 0 m/s 746 mmHg 89%
06:00 +12°C° 0 mm 0 m/s 746 mmHg 83%
07:00 +13°C° 0 mm 0 m/s 747 mmHg 77%
08:00 +15°C° 0 mm 0 m/s 747 mmHg 71%
09:00 +17°C° 0 mm 0 m/s 747 mmHg 68%
10:00 +18°C° 0 mm 0 m/s 747 mmHg 64%
11:00 +21°C° 0 mm 1 m/s 747 mmHg 61%
12:00 +22°C° 0 mm 1 m/s 747 mmHg 59%
13:00 +22°C° 0 mm 1 m/s 747 mmHg 57%
14:00 +23°C° 0 mm 1 m/s 746 mmHg 54%
15:00 +23°C° 0 mm 1 m/s 746 mmHg 56%
16:00 +23°C° 0 mm 1 m/s 746 mmHg 58%
17:00 +22°C° 0 mm 1 m/s 746 mmHg 59%
18:00 +21°C° 0 mm 1 m/s 746 mmHg 65%
19:00 +19°C° 0 mm 1 m/s 746 mmHg 72%
20:00 +16°C° 0 mm 1 m/s 746 mmHg 78%
21:00 +16°C° 0 mm 1 m/s 746 mmHg 79%
22:00 +16°C° 0 mm 1 m/s 746 mmHg 80%
23:00 +15°C° 0 mm 1 m/s 747 mmHg 81%

15 Août, Samedi

Heure Température Précipitation Vent Pression Humidité
00:00 +15°C° 0 mm 1 m/s 747 mmHg 82%
01:00 +15°C° 0 mm 1 m/s 747 mmHg 84%
02:00 +15°C° 0 mm 1 m/s 747 mmHg 85%
03:00 +14°C° 0 mm 1 m/s 747 mmHg 87%
04:00 +14°C° 0 mm 1 m/s 746 mmHg 89%
05:00 +13°C° 0 mm 1 m/s 746 mmHg 90%
06:00 +15°C° 0 mm 1 m/s 747 mmHg 85%
07:00 +16°C° 0 mm 1 m/s 747 mmHg 80%
08:00 +19°C° 0 mm 1 m/s 747 mmHg 75%
09:00 +20°C° 0.1 mm 1 m/s 747 mmHg 69%
10:00 +22°C° 0.1 mm 1 m/s 747 mmHg 64%
11:00 +22°C° 0.1 mm 0 m/s 747 mmHg 59%
12:00 +24°C° 0.3 mm 1 m/s 747 mmHg 58%
13:00 +24°C° 0.3 mm 1 m/s 747 mmHg 57%
14:00 +24°C° 0.3 mm 1 m/s 747 mmHg 57%
15:00 +24°C° 0.4 mm 1 m/s 747 mmHg 59%
16:00 +24°C° 0.4 mm 1 m/s 747 mmHg 61%
17:00 +23°C° 0.4 mm 1 m/s 746 mmHg 64%
18:00 +22°C° 0.1 mm 1 m/s 746 mmHg 69%
19:00 +20°C° 0.1 mm 1 m/s 746 mmHg 75%
20:00 +18°C° 0.1 mm 1 m/s 746 mmHg 80%
21:00 +18°C° 0 mm 1 m/s 746 mmHg 82%
22:00 +16°C° 0 mm 1 m/s 747 mmHg 83%
23:00 +16°C° 0 mm 1 m/s 747 mmHg 84%

16 Août, Dimanche

Heure Température Précipitation Vent Pression Humidité
00:00 +15°C° 0 mm 1 m/s 747 mmHg 85%
01:00 +15°C° 0 mm 1 m/s 747 mmHg 87%
02:00 +15°C° 0 mm 1 m/s 747 mmHg 88%
03:00 +14°C° 0 mm 1 m/s 747 mmHg 89%
04:00 +14°C° 0 mm 1 m/s 747 mmHg 90%
05:00 +14°C° 0 mm 1 m/s 747 mmHg 91%
06:00 +15°C° 0 mm 1 m/s 747 mmHg 86%
07:00 +18°C° 0 mm 1 m/s 747 mmHg 81%
08:00 +20°C° 0 mm 1 m/s 747 mmHg 77%
09:00 +21°C° 0 mm 1 m/s 747 mmHg 71%
10:00 +23°C° 0 mm 1 m/s 747 mmHg 65%
11:00 +25°C° 0 mm 2 m/s 748 mmHg 59%
12:00 +25°C° 0.2 mm 2 m/s 747 mmHg 59%
13:00 +25°C° 0.2 mm 2 m/s 747 mmHg 59%
14:00 +26°C° 0.2 mm 2 m/s 747 mmHg 58%
15:00 +25°C° 0.3 mm 2 m/s 747 mmHg 62%
16:00 +25°C° 0.3 mm 2 m/s 747 mmHg 66%
17:00 +24°C° 0.3 mm 1 m/s 746 mmHg 70%
18:00 +23°C° 0.1 mm 1 m/s 746 mmHg 74%
19:00 +22°C° 0.1 mm 1 m/s 746 mmHg 78%
20:00 +20°C° 0.1 mm 1 m/s 746 mmHg 82%
21:00 +19°C° 0 mm 1 m/s 746 mmHg 84%
22:00 +19°C° 0 mm 1 m/s 746 mmHg 86%
23:00 +18°C° 0 mm 1 m/s 746 mmHg 88%

17 Août, Lundi

Heure Température Précipitation Vent Pression Humidité
00:00 +18°C° 0 mm 1 m/s 746 mmHg 89%
01:00 +18°C° 0 mm 1 m/s 746 mmHg 90%
02:00 +16°C° 0 mm 1 m/s 746 mmHg 90%
03:00 +16°C° 0 mm 1 m/s 746 mmHg 91%
04:00 +16°C° 0 mm 1 m/s 746 mmHg 91%
05:00 +16°C° 0 mm 1 m/s 746 mmHg 92%
06:00 +18°C° 0 mm 1 m/s 746 mmHg 87%
07:00 +20°C° 0 mm 1 m/s 746 mmHg 83%
08:00 +21°C° 0 mm 1 m/s 746 mmHg 78%
09:00 +23°C° 0.1 mm 1 m/s 746 mmHg 72%
10:00 +24°C° 0.1 mm 1 m/s 746 mmHg 67%
11:00 +26°C° 0.1 mm 1 m/s 746 mmHg 61%
12:00 +26°C° 0.3 mm 1 m/s 745 mmHg 61%
13:00 +26°C° 0.3 mm 2 m/s 745 mmHg 61%
14:00 +26°C° 0.3 mm 2 m/s 745 mmHg 61%
15:00 +26°C° 0.2 mm 1 m/s 744 mmHg 61%
16:00 +26°C° 0.2 mm 1 m/s 744 mmHg 62%
17:00 +26°C° 0.2 mm 1 m/s 743 mmHg 62%
18:00 +24°C° 0 mm 1 m/s 743 mmHg 68%
19:00 +22°C° 0 mm 1 m/s 743 mmHg 73%
20:00 +20°C° 0 mm 1 m/s 743 mmHg 79%
21:00 +20°C° 0 mm 1 m/s 743 mmHg 81%
22:00 +19°C° 0 mm 1 m/s 743 mmHg 82%
23:00 +18°C° 0 mm 1 m/s 743 mmHg 84%
Voir plus